Abilene, TX

7:04 AM CDT on May 25, 2017 (GMT -0500)
Abilene Regional

Weather History for KABI - April, 2013

Change the Weather History Date:

Monday, April 1, 2013

  Actual Average Record
Temperature  
Mean Temperature 68 °F 61 °F  
Max Temperature 84 °F 74 °F 98 °F (1946)
Min Temperature 51 °F 48 °F 27 °F (1899)
Degree Days  
Heating Degree Days 0 6  
Month to date heating degree days 0 6  
Since 1 July heating degree days 2096 2437  
Cooling Degree Days 3 2  
Month to date cooling degree days 3 2  
Year to date cooling degree days 49 36  
Growing Degree Days 18 (Base 50)    
Moisture  
Dew Point 50 °F    
Average Humidity 60    
Maximum Humidity 89    
Minimum Humidity 31    
Precipitation  
Precipitation 0.10 in 0.05 in 2.03 in (1916)
Month to date precipitation 0.10 0.05  
Year to date precipitation 2.60 4.17  
Sea Level Pressure  
Sea Level Pressure 29.93 in    
Wind  
Wind Speed 12 mph (SE)    
Max Wind Speed 25 mph    
Max Gust Speed 32 mph    
Visibility 10 miles    
Events      
T = Trace of Precipitation, MM = Missing Value Source: NWS Daily Summary

Daily Weather History Graph

Daily Weather History Graph

Search for Another Location

Airport or City:

Trip Planner

Search our weather history database for the weather conditions in past years. The results will help you decide how hot, cold, wet, or windy it might be!

Date:

Astronomy

Apr. 01, 2013 Rise Set
Actual Time 7:26 AM CDT 7:58 PM CDT
Civil Twilight 7:01 AM CDT 8:23 PM CDT
Nautical Twilight 6:32 AM CDT 8:52 PM CDT
Astronomical Twilight 6:03 AM CDT 9:22 PM CDT
Moon 12:54 AM CDT (4/1) 11:29 AM CDT (4/1)
Length of Visible Light 13h 21m
Length of Day
12h 32m
Waning Gibbous, 67% of the Moon is Illuminated
Apr 1
Waning Gibbous
Apr 2
Last Quarter
Apr 10
New
Apr 18
First Quarter
Apr 25
Full

Hourly Weather History & Observations

Time (CDT) Temp. Dew Point Humidity Pressure Visibility Wind Dir Wind Speed Gust Speed Precip Events Conditions
12:52 AM 57.9 °F 45.0 °F 62% 29.97 in 10.0 mi Calm Calm - N/A   Clear
1:52 AM 57.0 °F 45.0 °F 64% 29.98 in 10.0 mi ESE 3.5 mph - N/A   Clear
2:52 AM 55.9 °F 45.0 °F 67% 29.97 in 10.0 mi ESE 6.9 mph - N/A   Clear
3:52 AM 55.0 °F 46.0 °F 72% 29.96 in 10.0 mi ESE 8.1 mph - N/A   Clear
4:52 AM 53.1 °F 46.0 °F 77% 29.96 in 10.0 mi SE 8.1 mph - N/A   Clear
5:52 AM 53.1 °F 46.9 °F 80% 29.97 in 10.0 mi SSE 6.9 mph - N/A   Clear
6:52 AM 52.0 °F 48.0 °F 86% 29.99 in 10.0 mi SSE 6.9 mph - N/A   Clear
7:52 AM 55.0 °F 50.0 °F 83% 30.00 in 10.0 mi SSE 9.2 mph - N/A   Clear
8:52 AM 60.1 °F 52.0 °F 75% 30.02 in 10.0 mi SE 5.8 mph - N/A   Clear
9:52 AM 66.9 °F 53.1 °F 61% 30.02 in 10.0 mi SSE 12.7 mph - N/A   Clear
10:52 AM 72.0 °F 52.0 °F 49% 30.01 in 10.0 mi SSE 12.7 mph - N/A   Clear
11:52 AM 75.9 °F 54.0 °F 46% 29.99 in 10.0 mi SSE 12.7 mph 20.7 mph N/A   Clear
12:52 PM 78.1 °F 52.0 °F 40% 29.98 in 10.0 mi SSE 13.8 mph - N/A   Clear
1:52 PM 79.0 °F 52.0 °F 39% 29.96 in 10.0 mi SE 12.7 mph - N/A   Partly Cloudy
2:52 PM 81.0 °F 51.1 °F 35% 29.92 in 10.0 mi SE 13.8 mph 24.2 mph N/A   Clear
3:52 PM 82.0 °F 51.1 °F 34% 29.88 in 10.0 mi ESE 15.0 mph 24.2 mph N/A   Clear
4:52 PM 82.9 °F 48.9 °F 31% 29.85 in 10.0 mi SSE 13.8 mph 21.9 mph N/A   Clear
5:52 PM 82.9 °F 48.9 °F 31% 29.82 in 10.0 mi SSE 12.7 mph - N/A   Clear
6:52 PM 82.0 °F 48.9 °F 31% 29.81 in 10.0 mi SE 15.0 mph 24.2 mph N/A   Partly Cloudy
7:52 PM 78.1 °F 50.0 °F 37% 29.81 in 10.0 mi ESE 15.0 mph - N/A   Clear
8:52 PM 75.0 °F 50.0 °F 41% 29.83 in 10.0 mi SE 15.0 mph - N/A   Clear
9:52 PM 73.0 °F 52.0 °F 48% 29.83 in 10.0 mi SE 15.0 mph - N/A   Clear
10:52 PM 70.0 °F 51.1 °F 51% 29.90 in 10.0 mi NNE 12.7 mph 23.0 mph N/A   Mostly Cloudy
11:52 PM 64.9 °F 59.0 °F 81% 29.88 in 10.0 mi East 12.7 mph 19.6 mph 0.04 in   Overcast